Location: Unspecified
(52.4292°N, 19.3359°E)
Time: 23:38:25
(UTC+02:00)

A-11 Canister half - Pass Details

Date: 25 May 2024
Orbit: 1524 x 1683 km, 47.3° (Epoch: 19 June)

Event Time Altitude Azimuth Distance (km) Brightness Sun altitude
Rises 00:06:29 0° 262° (W) 4,710 11.6 -16.2°
Reaches altitude 10° 00:09:31 10° 260° (W) 3,743 11.0 -16.3°
Maximum altitude 00:18:52 66° 181° (S) 1,715 9.0 -16.4°
Drops below altitude 10° 00:28:34 10° 102° (ESE) 3,867 10.9 -16.5°
Sets 00:31:45 0° 100° (E) 4,873 11.5 -16.6°
